Location: *
(49.3500°N, 12.6000°E)
Time: 12:23:29
(UTC+00:00)

Cosmos 1898 Rocket - Pass Details

Date: 18 October 2019
Orbit: 753 x 784 km, 74.0° (Epoch: 17 November)

Event Time Altitude Azimuth Distance (km) Brightness Sun altitude
Rises 18:49:09 0° 336° (NNW) 3,249 7.3 -25.8°
Reaches altitude 10° 18:51:32 10° 337° (NNW) 2,323 6.5 -26.2°
Enters shadow 18:56:42 86° 352° (N) 784 3.4 -27.0°
